QPF
0.07 0.06 0.05 0.04 0.04 0.04 0.04 0.07 0.10 0.09 0.07 0.06 0.05 0.03 0.02 0.02 0.03 0.02 0.01 0.02 0.02 0.02 0.02 0.02 0.02 0.03 0.03 0.04 0.05 0.07 0.07 0.08 0.10 0.12 0.13 0.14 0.16 0.15
0.07 0.07 0.05 0.04 0.03 0.03 0.04 0.06 0.08 0.09 0.08 0.07 0.06 0.03 0.01 0.01 0.02 0.02 0.02 0.02 0.02 0.03 0.03 0.02 0.03 0.03 0.04 0.04 0.04 0.05 0.07 0.09 0.12 0.14 0.15 0.15 0.15 0.13
0.05 0.04 0.04 0.03 0.03 0.02 0.02 0.04 0.05 0.06 0.06 0.07 0.05 0.03 0.03 0.02 0.02 0.02 0.03 0.02 0.02 0.02 0.02 0.02 0.03 0.04 0.04 0.04 0.04 0.04 0.05 0.08 0.11 0.15 0.16 0.15 0.12 0.11
0.04 0.03 0.03 0.03 0.03 0.02 0.02 0.03 0.04 0.05 0.05 0.05 0.05 0.05 0.06 0.04 0.03 0.03 0.02 0.02 0.02 0.03 0.03 0.03 0.04 0.05 0.04 0.03 0.03 0.02 0.03 0.05 0.07 0.11 0.14 0.14 0.11 0.09
0.03 0.03 0.03 0.02 0.02 0.02 0.03 0.04 0.04 0.04 0.04 0.05 0.04 0.05 0.06 0.05 0.04 0.04 0.03 0.03 0.03 0.04 0.04 0.04 0.04 0.04 0.03 0.03 0.02 0.02 0.01 0.02 0.03 0.05 0.07 0.09 0.09 0.07
0.02 0.01 0.02 0.02 0.01 0.01 0.02 0.03 0.03 0.05 0.05 0.05 0.05 0.05 0.06 0.06 0.05 0.05 0.05 0.04 0.04 0.05 0.04 0.04 0.04 0.04 0.02 0.01 0.01 0.01 0.02 0.02 0.02 0.02 0.03 0.03 0.04 0.04
0.02 0.02 0.01 0.01 0.01 0.01 0.01 0.01 0.02 0.04 0.04 0.04 0.04 0.05 0.06 0.07 0.06 0.05 0.05 0.05 0.04 0.05 0.05 0.03 0.03 0.03 0.02 0.02 0.02 0.02 0.02 0.02 0.02 0.02 0.02 0.02 0.02 0.02
0.03 0.03 0.02 0.01 0.01 0.02 0.02 0.01 0.01 0.03 0.04 0.04 0.03 0.03 0.05 0.07 0.07 0.06 0.04 0.04 0.04 0.05 0.05 0.04 0.03 0.03 0.02 0.02 0.02 0.02 0.02 0.02 0.02 0.01 0.01 0.01 0.01 0.01
0.02 0.02 0.02 0.01 0.02 0.03 0.04 0.03 0.01 0.02 0.03 0.03 0.03 0.03 0.05 0.06 0.06 0.06 0.04 0.03 0.04 0.04 0.03 0.04 0.04 0.03 0.02 0.02 0.03 0.03 0.03 0.03 0.03 0.02 0.01 0.01 0.01 0.01
0.01 0.02 0.02 0.02 0.01 0.02 0.04 0.05 0.03 0.03 0.03 0.04 0.04 0.04 0.05 0.05 0.05 0.04 0.03 0.03 0.02 0.02 0.03 0.03 0.04 0.03 0.03 0.03 0.03 0.03 0.03 0.03 0.03 0.02 0.01 0.01 0.01 0.01
0.01 0.01 0.01 0.01 0.01 0.01 0.02 0.03 0.03 0.02 0.03 0.04 0.04 0.04 0.05 0.05 0.05 0.04 0.03 0.03 0.03 0.03 0.03 0.03 0.03 0.03 0.03 0.03 0.03 0.02 0.02 0.01 0.01 0.01 0.01 0.01 0.01 0.01
0.01 0.01 0.01 0.01 0.01 0.01 0.02 0.03 0.04 0.04 0.03 0.04 0.05 0.04 0.04 0.05 0.05 0.04 0.02 0.03 0.03 0.03 0.03 0.02 0.02 0.02 0.03 0.03 0.02 0.01 0.01 0.01 0.00 0.00 0.00 0.01 0.01 0.01
0.01 0.01 0.01 0.00 0.00 0.00 0.01 0.02 0.03 0.05 0.05 0.05 0.04 0.03 0.03 0.03 0.04 0.03 0.03 0.03 0.03 0.03 0.02 0.02 0.02 0.02 0.02 0.02 0.01 0.01 0.00 0.00 0.00 0.00 0.00 0.00 0.00 0.00
0.02 0.01 0.01 0.00 0.01 0.00 0.01 0.01 0.02 0.04 0.04 0.03 0.03 0.03 0.03 0.03 0.04 0.03 0.02 0.02 0.02 0.02 0.02 0.02 0.02 0.02 0.01 0.01 0.01 0.01 0.01 0.01 0.01 0.01 0.01 0.00 0.00 0.00
0.01 0.01 0.01 0.01 0.01 0.02 0.02 0.02 0.02 0.03 0.03 0.03 0.03 0.03 0.03 0.02 0.02 0.02 0.02 0.02 0.02 0.01 0.01 0.02 0.02 0.03 0.02 0.02 0.01 0.01 0.00 0.01 0.01 0.01 0.01 0.00 0.01 0.01
0.01 0.01 0.01 0.01 0.01 0.02 0.03 0.03 0.03 0.03 0.03 0.02 0.03 0.02 0.01 0.01 0.01 0.01 0.02 0.02 0.02 0.02 0.01 0.01 0.02 0.02 0.02 0.01 0.01 0.00 0.00 0.00 0.00 0.01 0.00 0.00 0.00 0.01
0.02 0.03 0.03 0.02 0.01 0.01 0.02 0.02 0.03 0.03 0.03 0.02 0.02 0.01 0.01 0.01 0.01 0.01 0.01 0.01 0.01 0.02 0.02 0.01 0.01 0.01 0.01 0.01 0.01 0.01 0.01 0.00 0.00 0.01 0.01 0.01 0.01 0.01
0.02 0.04 0.03 0.02 0.01 0.01 0.01 0.01 0.01 0.01 0.01 0.01 0.01 0.02 0.02 0.01 0.01 0.02 0.02 0.01 0.01 0.01 0.02 0.01 0.01 0.01 0.01 0.01 0.01 0.01 0.01 0.00 0.00 0.00 0.01 0.01 0.01 0.01
0.02 0.02 0.01 0.01 0.01 0.01 0.01 0.01 0.01 0.00 0.00 0.01 0.01 0.01 0.01 0.01 0.00 0.01 0.01 0.01 0.02 0.01 0.01 0.01 0.01 0.01 0.02 0.02 0.02 0.02 0.01 0.01 0.00 0.00 0.00 0.00 0.01 0.01
0.01 0.01 0.00 0.00 0.00 0.00 0.01 0.01 0.01 0.01 0.01 0.01 0.00 0.01 0.01 0.01 0.01 0.01 0.01 0.01 0.01 0.02 0.02 0.01 0.01 0.01 0.02 0.03 0.03 0.02 0.02 0.00 0.00 0.00 0.00 0.00 0.01 0.01
0.01 0.01 0.00 0.00 0.00 0.00 0.00 0.00 0.00 0.01 0.00 0.00 0.00 0.01 0.01 0.01 0.00 0.00 0.01 0.00 0.01 0.01 0.02 0.02 0.01 0.01 0.02 0.03 0.04 0.02 0.01 0.01 0.00 0.00 0.00 0.00 0.01 0.01
0.01 0.01 0.01 0.01 0.00 0.00 0.00 0.00 0.00 0.00 0.00 0.00 0.00 0.00 0.00 0.00 0.00 0.00 0.01 0.01 0.00 0.01 0.01 0.01 0.01 0.01 0.02 0.02 0.02 0.01 0.00 0.00 0.00 0.00 0.00 0.00 0.01 0.01
0.02 0.02 0.00 0.00 0.00 0.00 0.00 0.00 0.00 0.00 0.00 0.00 0.00 0.00 0.00 0.00 0.00 0.00 0.01 0.00 0.00 0.01 0.01 0.01 0.01 0.01 0.01 0.01 0.01 0.01 0.01 0.00 0.00 0.00 0.00 0.00 0.00 0.00
MSLP
1015.35 1014.96 1014.61 1014.32 1014.09 1013.92 1013.81 1013.74 1013.70 1013.69 1013.69 1013.69 1013.69 1013.69 1013.71 1013.73 1013.78 1013.86 1013.97 1014.10 1014.24 1014.40 1014.55 1014.69 1014.83 1014.95 1015.08 1015.23 1015.40 1015.62 1015.88 1016.20 1016.58 1017.01 1017.49 1018.00 1018.55 1019.11
1014.82 1014.42 1014.08 1013.81 1013.61 1013.48 1013.41 1013.40 1013.42 1013.47 1013.53 1013.60 1013.66 1013.73 1013.81 1013.90 1014.01 1014.14 1014.30 1014.47 1014.66 1014.85 1015.03 1015.21 1015.37 1015.53 1015.68 1015.85 1016.05 1016.28 1016.55 1016.87 1017.22 1017.62 1018.05 1018.49 1018.96 1019.44
1014.31 1013.89 1013.54 1013.27 1013.07 1012.96 1012.91 1012.93 1012.99 1013.08 1013.20 1013.33 1013.47 1013.62 1013.78 1013.96 1014.16 1014.38 1014.61 1014.85 1015.10 1015.33 1015.55 1015.76 1015.95 1016.12 1016.30 1016.48 1016.69 1016.93 1017.20 1017.51 1017.84 1018.20 1018.57 1018.95 1019.34 1019.73
1013.89 1013.45 1013.08 1012.79 1012.58 1012.45 1012.39 1012.41 1012.47 1012.59 1012.74 1012.93 1013.14 1013.38 1013.64 1013.92 1014.23 1014.55 1014.87 1015.19 1015.50 1015.79 1016.04 1016.27 1016.47 1016.66 1016.84 1017.03 1017.24 1017.48 1017.76 1018.05 1018.37 1018.70 1019.03 1019.35 1019.67 1019.97
1013.63 1013.16 1012.76 1012.43 1012.18 1012.01 1011.92 1011.90 1011.95 1012.06 1012.23 1012.45 1012.72 1013.04 1013.40 1013.79 1014.20 1014.63 1015.05 1015.45 1015.81 1016.14 1016.42 1016.66 1016.86 1017.04 1017.22 1017.41 1017.62 1017.87 1018.15 1018.45 1018.76 1019.08 1019.38 1019.67 1019.93 1020.16
1013.51 1013.02 1012.58 1012.20 1011.90 1011.67 1011.52 1011.45 1011.46 1011.54 1011.71 1011.95 1012.27 1012.65 1013.09 1013.58 1014.08 1014.60 1015.10 1015.56 1015.97 1016.33 1016.62 1016.86 1017.05 1017.22 1017.39 1017.57 1017.78 1018.03 1018.32 1018.64 1018.97 1019.29 1019.59 1019.86 1020.08 1020.27
1013.50 1012.99 1012.51 1012.09 1011.73 1011.44 1011.22 1011.09 1011.04 1011.09 1011.24 1011.48 1011.82 1012.25 1012.74 1013.29 1013.86 1014.44 1015.00 1015.50 1015.94 1016.31 1016.60 1016.82 1017.00 1017.15 1017.30 1017.48 1017.69 1017.96 1018.26 1018.60 1018.96 1019.31 1019.62 1019.89 1020.10 1020.24
1013.55 1013.01 1012.51 1012.05 1011.64 1011.29 1011.02 1010.83 1010.73 1010.74 1010.86 1011.09 1011.43 1011.86 1012.38 1012.96 1013.56 1014.17 1014.74 1015.26 1015.70 1016.06 1016.34 1016.54 1016.70 1016.83 1016.97 1017.14 1017.36 1017.64 1017.97 1018.34 1018.72 1019.09 1019.43 1019.70 1019.90 1020.03
1013.60 1013.06 1012.55 1012.06 1011.62 1011.23 1010.92 1010.69 1010.55 1010.52 1010.61 1010.81 1011.13 1011.55 1012.06 1012.62 1013.22 1013.81 1014.37 1014.87 1015.28 1015.62 1015.87 1016.05 1016.19 1016.31 1016.44 1016.61 1016.83 1017.12 1017.46 1017.85 1018.25 1018.64 1018.98 1019.26 1019.46 1019.56
1013.65 1013.12 1012.60 1012.11 1011.66 1011.26 1010.93 1010.68 1010.52 1010.47 1010.52 1010.69 1010.97 1011.35 1011.81 1012.33 1012.87 1013.41 1013.92 1014.37 1014.75 1015.04 1015.26 1015.42 1015.54 1015.65 1015.78 1015.94 1016.16 1016.45 1016.79 1017.17 1017.57 1017.95 1018.29 1018.55 1018.72 1018.80
1013.69 1013.18 1012.68 1012.21 1011.77 1011.39 1011.07 1010.82 1010.66 1010.59 1010.63 1010.76 1010.99 1011.31 1011.70 1012.14 1012.60 1013.05 1013.48 1013.86 1014.18 1014.43 1014.62 1014.76 1014.87 1014.97 1015.08 1015.24 1015.45 1015.71 1016.02 1016.37 1016.73 1017.07 1017.37 1017.59 1017.73 1017.77
1013.76 1013.28 1012.81 1012.37 1011.97 1011.62 1011.33 1011.11 1010.96 1010.89 1010.91 1011.01 1011.19 1011.44 1011.74 1012.08 1012.44 1012.80 1013.13 1013.43 1013.69 1013.89 1014.04 1014.16 1014.26 1014.35 1014.46 1014.59 1014.77 1014.99 1015.25 1015.53 1015.81 1016.08 1016.30 1016.46 1016.54 1016.54
1013.87 1013.42 1012.99 1012.59 1012.23 1011.93 1011.68 1011.50 1011.39 1011.33 1011.35 1011.42 1011.55 1011.72 1011.94 1012.18 1012.43 1012.68 1012.92 1013.14 1013.32 1013.48 1013.60 1013.70 1013.79 1013.87 1013.96 1014.06 1014.19 1014.35 1014.52 1014.71 1014.89 1015.05 1015.17 1015.24 1015.25 1015.20
1014.01 1013.59 1013.19 1012.83 1012.52 1012.27 1012.08 1011.95 1011.87 1011.84 1011.86 1011.91 1012.00 1012.11 1012.25 1012.39 1012.55 1012.70 1012.85 1012.99 1013.12 1013.23 1013.32 1013.41 1013.48 1013.54 1013.60 1013.67 1013.74 1013.81 1013.89 1013.96 1014.02 1014.06 1014.07 1014.05 1013.99 1013.89
1014.13 1013.73 1013.37 1013.05 1012.78 1012.58 1012.44 1012.35 1012.31 1012.31 1012.34 1012.39 1012.45 1012.52 1012.59 1012.66 1012.73 1012.81 1012.88 1012.96 1013.04 1013.11 1013.18 1013.24 1013.30 1013.34 1013.37 1013.39 1013.39 1013.38 1013.36 1013.31 1013.25 1013.17 1013.08 1012.96 1012.84 1012.71
1014.18 1013.79 1013.45 1013.15 1012.92 1012.76 1012.66 1012.61 1012.61 1012.64 1012.68 1012.74 1012.79 1012.83 1012.86 1012.88 1012.90 1012.91 1012.93 1012.96 1013.00 1013.04 1013.09 1013.13 1013.17 1013.19 1013.19 1013.16 1013.10 1013.01 1012.89 1012.74 1012.58 1012.40 1012.22 1012.04 1011.87 1011.73
1014.08 1013.70 1013.37 1013.09 1012.88 1012.74 1012.67 1012.66 1012.68 1012.74 1012.80 1012.87 1012.92 1012.95 1012.96 1012.96 1012.94 1012.92 1012.90 1012.90 1012.90 1012.92 1012.95 1012.97 1012.99 1012.98 1012.95 1012.88 1012.77 1012.62 1012.43 1012.22 1011.98 1011.74 1011.50 1011.28 1011.10 1010.96
1013.82 1013.44 1013.10 1012.83 1012.63 1012.50 1012.44 1012.45 1012.49 1012.57 1012.65 1012.72 1012.78 1012.81 1012.82 1012.80 1012.77 1012.73 1012.69 1012.67 1012.65 1012.64 1012.65 1012.65 1012.65 1012.62 1012.56 1012.47 1012.32 1012.14 1011.92 1011.67 1011.40 1011.14 1010.88 1010.66 1010.49 1010.37
1013.40 1013.01 1012.67 1012.39 1012.19 1012.07 1012.01 1012.02 1012.07 1012.15 1012.24 1012.32 1012.39 1012.42 1012.43 1012.41 1012.37 1012.32 1012.27 1012.22 1012.18 1012.16 1012.14 1012.13 1012.10 1012.06 1011.98 1011.88 1011.72 1011.53 1011.31 1011.06 1010.80 1010.54 1010.30 1010.10 1009.95 1009.87
1012.87 1012.48 1012.13 1011.86 1011.65 1011.51 1011.45 1011.45 1011.50 1011.57 1011.65 1011.73 1011.79 1011.83 1011.83 1011.81 1011.76 1011.70 1011.63 1011.57 1011.52 1011.47 1011.43 1011.40 1011.35 1011.30 1011.22 1011.11 1010.97 1010.79 1010.59 1010.36 1010.13 1009.91 1009.70 1009.53 1009.41 1009.36
1012.31 1011.92 1011.58 1011.30 1011.09 1010.95 1010.87 1010.85 1010.88 1010.93 1011.00 1011.06 1011.10 1011.12 1011.11 1011.08 1011.02 1010.94 1010.86 1010.78 1010.71 1010.64 1010.58 1010.53 1010.47 1010.41 1010.33 1010.23 1010.11 1009.96 1009.79 1009.60 1009.41 1009.22 1009.05 1008.91 1008.82 1008.78
1011.79 1011.42 1011.09 1010.82 1010.60 1010.45 1010.36 1010.32 1010.32 1010.34 1010.38 1010.41 1010.43 1010.42 1010.39 1010.33 1010.25 1010.16 1010.06 1009.96 1009.87 1009.78 1009.70 1009.63 1009.56 1009.49 1009.42 1009.33 1009.22 1009.10 1008.96 1008.81 1008.65 1008.49 1008.35 1008.22 1008.13 1008.08
1011.34 1011.00 1010.69 1010.44 1010.23 1010.08 1009.98 1009.92 1009.89 1009.88 1009.88 1009.87 1009.85 1009.81 1009.75 1009.67 1009.57 1009.45 1009.33 1009.21 1009.10 1008.99 1008.89 1008.81 1008.73 1008.66 1008.58 1008.50 1008.41 1008.30 1008.18 1008.05 1007.91 1007.76 1007.61 1007.48 1007.37 1007.28
Thickness
5603 5603 5604 5606 5607 5608 5608 5609 5608 5608 5610 5610 5612 5614 5615 5617 5618 5621 5625 5625 5627 5629 5631 5633 5634 5636 5637 5637 5638 5639 5639 5639 5639 5638 5637 5636 5635 5634
5595 5596 5597 5600 5601 5602 5603 5605 5605 5605 5606 5607 5607 5607 5607 5610 5611 5614 5618 5618 5620 5622 5624 5625 5627 5628 5629 5630 5631 5631 5632 5632 5632 5631 5631 5630 5629 5628
5589 5591 5591 5593 5595 5597 5598 5598 5599 5600 5600 5600 5600 5601 5601 5603 5606 5608 5612 5614 5616 5616 5617 5619 5620 5621 5622 5622 5623 5624 5625 5625 5625 5625 5625 5624 5623 5622
5584 5586 5587 5588 5589 5591 5591 5592 5592 5593 5593 5593 5594 5596 5596 5598 5600 5602 5606 5609 5611 5611 5611 5612 5613 5614 5615 5615 5616 5617 5617 5618 5618 5618 5618 5618 5617 5616
5580 5581 5583 5583 5583 5585 5586 5587 5588 5589 5589 5589 5591 5592 5593 5595 5596 5598 5602 5603 5606 5606 5607 5607 5608 5608 5609 5609 5610 5610 5610 5611 5611 5611 5611 5611 5611 5610
5575 5577 5578 5579 5579 5579 5581 5582 5584 5585 5586 5587 5588 5589 5590 5591 5593 5595 5597 5600 5602 5604 5603 5603 5603 5603 5604 5605 5605 5605 5604 5604 5605 5605 5604 5604 5604 5604
5572 5574 5574 5573 5572 5574 5577 5579 5581 5583 5585 5586 5586 5587 5588 5587 5590 5593 5595 5597 5598 5600 5601 5602 5602 5603 5602 5601 5600 5600 5600 5600 5600 5600 5599 5599 5598 5598
5569 5570 5572 5572 5570 5569 5570 5572 5574 5578 5582 5583 5585 5584 5583 5585 5587 5590 5592 5593 5594 5596 5597 5599 5600 5600 5600 5600 5598 5597 5596 5596 5596 5595 5595 5594 5593 5593
5567 5568 5571 5571 5570 5571 5570 5570 5572 5573 5574 5578 5582 5582 5582 5583 5584 5587 5588 5589 5591 5594 5594 5595 5597 5598 5598 5597 5595 5593 5593 5592 5592 5591 5591 5590 5589 5589
5567 5568 5568 5569 5569 5568 5571 5573 5574 5575 5574 5575 5577 5579 5581 5581 5582 5583 5584 5585 5587 5590 5591 5592 5595 5595 5597 5595 5592 5591 5590 5589 5588 5588 5588 5587 5587 5586
5568 5568 5568 5568 5565 5565 5569 5572 5573 5574 5573 5573 5574 5575 5576 5577 5578 5581 5584 5586 5588 5590 5590 5590 5591 5593 5594 5594 5592 5589 5588 5587 5586 5586 5585 5585 5584 5583
5570 5570 5566 5565 5564 5564 5568 5571 5573 5574 5575 5576 5575 5575 5577 5577 5577 5579 5583 5585 5587 5587 5588 5587 5589 5590 5591 5593 5593 5590 5588 5587 5586 5585 5584 5583 5582 5581
5572 5573 5572 5565 5564 5564 5566 5570 5571 5571 5574 5577 5579 5580 5580 5581 5581 5581 5582 5583 5585 5586 5586 5585 5586 5588 5589 5590 5592 5592 5591 5590 5588 5586 5584 5583 5581 5579
5570 5572 5571 5566 5566 5566 5568 5569 5569 5570 5576 5579 5580 5581 5582 5583 5583 5582 5581 5581 5581 5582 5582 5582 5584 5584 5586 5587 5589 5591 5591 5590 5589 5588 5587 5584 5581 5579
5571 5569 5568 5568 5568 5570 5570 5570 5571 5575 5578 5579 5580 5581 5582 5582 5582 5581 5580 5580 5580 5581 5582 5581 5582 5583 5584 5586 5588 5589 5589 5589 5588 5587 5586 5585 5584 5582
5572 5572 5570 5571 5571 5572 5574 5576 5577 5579 5580 5580 5581 5582 5583 5582 5583 5583 5583 5583 5583 5584 5584 5582 5581 5581 5583 5585 5586 5587 5587 5587 5587 5586 5585 5584 5584 5583
5569 5574 5579 5581 5582 5583 5583 5583 5583 5583 5582 5582 5583 5583 5584 5584 5585 5585 5584 5584 5584 5584 5585 5585 5584 5583 5582 5583 5584 5586 5586 5586 5585 5584 5580 5581 5582 5581
5568 5577 5581 5584 5586 5586 5587 5587 5587 5586 5586 5586 5585 5585 5585 5585 5586 5586 5586 5585 5585 5586 5586 5587 5586 5585 5584 5586 5582 5583 5583 5582 5582 5580 5578 5578 5579 5579
5573 5581 5585 5586 5587 5588 5589 5590 5589 5589 5588 5588 5587 5587 5587 5587 5587 5586 5586 5586 5586 5586 5587 5587 5585 5583 5581 5584 5585 5580 5580 5579 5577 5577 5576 5575 5574 5575
5584 5587 5589 5590 5590 5591 5591 5591 5591 5591 5590 5589 5588 5588 5588 5588 5587 5587 5587 5585 5586 5586 5586 5586 5585 5583 5581 5581 5582 5582 5576 5576 5574 5573 5573 5572 5572 5571
5592 5592 5593 5593 5593 5593 5593 5592 5592 5591 5590 5589 5589 5588 5588 5588 5587 5587 5588 5585 5583 5585 5585 5586 5585 5581 5581 5579 5579 5580 5579 5574 5572 5568 5567 5567 5567 5567
5595 5595 5595 5595 5595 5594 5594 5594 5594 5592 5591 5591 5590 5590 5589 5589 5588 5587 5588 5587 5586 5586 5586 5586 5584 5581 5579 5577 5577 5577 5577 5574 5571 5566 5564 5562 5560 5560
5596 5596 5595 5596 5595 5595 5595 5595 5594 5594 5593 5592 5592 5591 5590 5589 5588 5588 5588 5587 5586 5586 5585 5584 5583 5581 5579 5577 5576 5575 5573 5572 5571 5569 5567 5562 5557 5554